Terminal Aerodrome Forecast
Issued by NWS

Home | Current Version | Previous Version | Text Only | Print | Product List | Glossary On
Versions: 1 2 3 4 5 6 7 8 9 10 11 12 13 14 15 16 17 18 19 20 21
000
FTUS43 KDVN 241611 AAB
TAFCID
TAF AMD
KCID 241611Z 2416/2512 21014G20KT P6SM BKN100
     FM242100 19011KT P6SM VCSH BKN040
     FM250000 16008KT 4SM -SHRA BR OVC020=

USA.gov is the U.S. government's official web portal to all federal, state and local government web resources and services.